PAA115 LFPO-KMIA

Flight info

Callsign PAA115
Flight time N/A
Altitude 30000
Route LGL UN502 ARGED DCT SENLO DCT JSY DCT LIZAD DCT LESLU DCT MALOT/M083F300 DCT 5420N DCT 5430N DCT 5440N DCT 5350N DCT RIKAL/N0489F300 N572A TOPPS/N0483F360 DCT BEEKN Q97 KALDA DCT BGBRD Q101 SKARP Y313 HOAGG DCT ZBV FOWEE2
Aircraft L101/H-SDFGHIRWXY/S

Departure

Time 2026-05-04 13:46
Airport Paris-Orly Airport (LFPO)

Arrival

Time N/A
Airport Miami International Airport (KMIA)
Time Latitude Longitude Altitude Speed Heading
2026-05-04 13:04 48.72609 2.36270 296 ft 0 kts 344°
2026-05-04 13:35 48.72602 2.36273 298 ft 4 kts 344°
2026-05-04 13:35 48.72576 2.36284 298 ft 4 kts 344°
2026-05-04 13:36 48.72554 2.36293 303 ft 3 kts 339°
2026-05-04 13:36 48.72533 2.36314 300 ft 3 kts 298°
2026-05-04 13:36 48.72528 2.36348 304 ft 2 kts 255°
2026-05-04 13:36 48.72529 2.36351 300 ft 8 kts 255°
2026-05-04 13:39 48.72528 2.36345 304 ft 2 kts 257°
2026-05-04 13:39 48.72523 2.36315 300 ft 4 kts 256°
2026-05-04 13:40 48.72514 2.36268 304 ft 5 kts 248°
2026-05-04 13:40 48.72510 2.36258 300 ft 0 kts 242°
2026-05-04 13:40 48.72505 2.36248 300 ft 3 kts 231°
2026-05-04 13:40 48.72480 2.36232 300 ft 5 kts 184°
2026-05-04 13:41 48.72435 2.36211 304 ft 8 kts 215°
2026-05-04 13:41 48.72403 2.36122 306 ft 11 kts 255°
2026-05-04 13:41 48.72380 2.35997 306 ft 13 kts 254°
2026-05-04 13:42 48.72325 2.35703 301 ft 16 kts 251°
2026-05-04 13:42 48.72251 2.35603 304 ft 14 kts 188°
2026-05-04 13:42 48.72154 2.35630 301 ft 14 kts 165°
2026-05-04 13:42 48.72071 2.35694 304 ft 9 kts 149°
2026-05-04 13:43 48.72041 2.35736 301 ft 0 kts 130°
2026-05-04 13:44 48.72028 2.35760 305 ft 6 kts 129°
2026-05-04 13:44 48.72009 2.35808 304 ft 6 kts 120°
2026-05-04 13:44 48.71989 2.35861 301 ft 6 kts 120°
2026-05-04 13:44 48.71970 2.35913 304 ft 5 kts 114°
2026-05-04 13:45 48.71964 2.35968 300 ft 5 kts 82°
2026-05-04 13:45 48.71972 2.36019 305 ft 0 kts 77°
2026-05-04 13:45 48.71984 2.36090 302 ft 31 kts 76°
2026-05-04 13:45 48.72105 2.36745 304 ft 97 kts 74°
2026-05-04 13:46 48.72337 2.38023 307 ft 152 kts 74°
2026-05-04 13:46 48.72667 2.39685 730 ft 163 kts 74°
2026-05-04 13:46 48.72992 2.41334 1411 ft 166 kts 76°
2026-05-04 13:46 48.73297 2.43126 1806 ft 187 kts 77°
2026-05-04 13:47 48.73597 2.45171 2246 ft 212 kts 78°
2026-05-04 13:47 48.73927 2.47461 2460 ft 234 kts 78°
2026-05-04 13:47 48.74306 2.50053 2290 ft 270 kts 77°
2026-05-04 13:47 48.74711 2.52819 2241 ft 267 kts 78°
2026-05-04 13:48 48.74924 2.55590 3157 ft 260 kts 97°
2026-05-04 13:48 48.74392 2.58153 4132 ft 257 kts 121°
2026-05-04 13:48 48.73168 2.60194 4634 ft 273 kts 146°
2026-05-04 13:48 48.71413 2.61287 5373 ft 272 kts 172°
2026-05-04 13:49 48.69544 2.61190 6158 ft 273 kts 195°
2026-05-04 13:49 48.67813 2.59934 6667 ft 282 kts 220°
2026-05-04 13:49 48.66617 2.57573 7216 ft 285 kts 249°
2026-05-04 13:49 48.66153 2.54671 7802 ft 289 kts 265°
2026-05-04 13:50 48.66118 2.51591 8383 ft 291 kts 274°
2026-05-04 13:50 48.66288 2.48608 9361 ft 284 kts 276°
2026-05-04 13:50 48.66518 2.45609 9751 ft 299 kts 277°
2026-05-04 13:50 48.66767 2.42459 10389 ft 303 kts 277°
2026-05-04 13:51 48.67025 2.39216 10673 ft 321 kts 277°
2026-05-04 13:51 48.67292 2.35757 10800 ft 342 kts 277°
2026-05-04 13:51 48.67574 2.32068 10932 ft 362 kts 276°
2026-05-04 13:51 48.67866 2.28178 11039 ft 380 kts 276°
2026-05-04 13:52 48.68463 2.20137 12059 ft 385 kts 276°
2026-05-04 13:52 48.68762 2.16069 12486 ft 390 kts 276°
2026-05-04 13:52 48.69061 2.11967 12893 ft 395 kts 276°
2026-05-04 13:53 48.69367 2.07822 13421 ft 398 kts 276°
2026-05-04 13:53 48.69684 2.03660 13921 ft 401 kts 276°
2026-05-04 13:53 48.69995 1.99518 14407 ft 403 kts 276°
2026-05-04 13:54 48.70634 1.90978 15496 ft 408 kts 276°
2026-05-04 13:54 48.70942 1.86696 16019 ft 410 kts 275°
2026-05-04 13:54 48.71529 1.78091 17148 ft 415 kts 275°
2026-05-04 13:55 48.71821 1.73721 17696 ft 418 kts 275°
2026-05-04 13:55 48.72407 1.64784 18512 ft 430 kts 274°
2026-05-04 13:55 48.72708 1.60272 18989 ft 431 kts 275°
2026-05-04 13:56 48.73017 1.55730 19517 ft 434 kts 274°
2026-05-04 13:56 48.73316 1.51171 20089 ft 435 kts 274°
2026-05-04 13:56 48.73919 1.42008 21138 ft 439 kts 274°
2026-05-04 13:57 48.74220 1.37409 21575 ft 443 kts 273°
2026-05-04 13:57 48.74484 1.32764 22224 ft 442 kts 272°
2026-05-04 13:58 48.75262 1.18709 23548 ft 451 kts 272°
2026-05-04 13:58 48.75808 1.09209 24359 ft 454 kts 272°
2026-05-04 13:58 48.76056 1.04430 24716 ft 459 kts 272°
2026-05-04 13:59 48.76311 0.99622 25306 ft 457 kts 272°
2026-05-04 13:59 48.76578 0.94858 25668 ft 461 kts 272°
2026-05-04 13:59 48.77111 0.85130 26531 ft 465 kts 271°
2026-05-04 14:00 48.77383 0.80222 26926 ft 468 kts 271°
2026-05-04 14:00 48.77963 0.70346 27762 ft 473 kts 272°
2026-05-04 14:00 48.78264 0.65369 28155 ft 475 kts 272°
2026-05-04 14:01 48.78566 0.60364 28538 ft 477 kts 272°
2026-05-04 14:01 48.78933 0.55332 28945 ft 481 kts 276°
2026-05-04 14:01 48.80578 0.45457 29838 ft 488 kts 283°
2026-05-04 14:02 48.81496 0.40490 29959 ft 489 kts 281°
2026-05-04 14:02 48.83180 0.30558 29964 ft 484 kts 281°
2026-05-04 14:03 48.84907 0.20748 29961 ft 484 kts 282°
2026-05-04 14:03 48.86675 0.10875 29969 ft 484 kts 282°
2026-05-04 14:04 48.89315 -0.03942 29981 ft 485 kts 281°
2026-05-04 14:04 48.91069 -0.13805 29972 ft 482 kts 281°
2026-05-04 14:05 48.93646 -0.28585 29983 ft 481 kts 280°
2026-05-04 14:06 48.95257 -0.38407 29979 ft 482 kts 280°
2026-05-04 14:06 48.96896 -0.48285 29985 ft 482 kts 280°
2026-05-04 14:07 48.98561 -0.58158 29982 ft 482 kts 280°
2026-05-04 14:07 48.99935 -0.66365 29983 ft 481 kts 280°
2026-05-04 14:08 49.01579 -0.76252 29977 ft 481 kts 280°
2026-05-04 14:08 49.03216 -0.86139 29976 ft 481 kts 280°
2026-05-04 14:09 49.05672 -1.01021 29972 ft 483 kts 280°
2026-05-04 14:10 49.08103 -1.15950 29971 ft 484 kts 279°
2026-05-04 14:10 49.09708 -1.25915 29977 ft 483 kts 279°
2026-05-04 14:11 49.11257 -1.35891 29976 ft 484 kts 279°
2026-05-04 14:11 49.13683 -1.50992 29967 ft 491 kts 279°
2026-05-04 14:12 49.15301 -1.61113 29976 ft 490 kts 279°
2026-05-04 14:13 49.17720 -1.76282 29981 ft 490 kts 279°
2026-05-04 14:13 49.19314 -1.86368 29988 ft 492 kts 278°
2026-05-04 14:14 49.20914 -1.96536 29983 ft 493 kts 278°
2026-05-04 14:14 49.23419 -2.11802 29989 ft 494 kts 279°
2026-05-04 14:15 49.26830 -2.32148 30006 ft 494 kts 280°
2026-05-04 14:16 49.29434 -2.47437 30018 ft 494 kts 280°
2026-05-04 14:17 49.32020 -2.62738 30016 ft 494 kts 279°
2026-05-04 14:18 49.34572 -2.77979 30006 ft 495 kts 280°
2026-05-04 14:19 49.37968 -2.98465 29993 ft 495 kts 280°
2026-05-04 14:19 49.39662 -3.08696 30002 ft 495 kts 280°
2026-05-04 14:20 49.41340 -3.18938 30004 ft 493 kts 280°
2026-05-04 14:20 49.42990 -3.29140 30001 ft 492 kts 280°
2026-05-04 14:21 49.45464 -3.44429 30001 ft 491 kts 280°
2026-05-04 14:21 49.47093 -3.54631 29998 ft 491 kts 280°
2026-05-04 14:22 49.48718 -3.64843 30004 ft 492 kts 280°
2026-05-04 14:22 49.50340 -3.75065 30001 ft 492 kts 280°
2026-05-04 14:23 49.52737 -3.90353 30006 ft 492 kts 280°
2026-05-04 14:24 49.54326 -4.00605 30003 ft 492 kts 280°
2026-05-04 14:24 49.55918 -4.10862 30007 ft 493 kts 280°
2026-05-04 14:25 49.57504 -4.21166 30000 ft 494 kts 280°
2026-05-04 14:25 49.59368 -4.31360 29957 ft 499 kts 294°
2026-05-04 14:25 49.61101 -4.35990 30028 ft 498 kts 300°
2026-05-04 14:26 49.64653 -4.45142 30013 ft 500 kts 295°
2026-05-04 14:26 49.68023 -4.54552 30002 ft 502 kts 298°
2026-05-04 14:27 49.71694 -4.63743 30007 ft 503 kts 301°
2026-05-04 14:27 49.75427 -4.72918 30004 ft 504 kts 300°
2026-05-04 14:28 49.79144 -4.82118 30004 ft 504 kts 300°
2026-05-04 14:28 49.82860 -4.91311 30005 ft 504 kts 300°
2026-05-04 14:29 49.90253 -5.09664 30011 ft 502 kts 300°
2026-05-04 14:30 49.93936 -5.18857 30019 ft 501 kts 300°
2026-05-04 14:31 49.99447 -5.32688 30015 ft 502 kts 300°
2026-05-04 14:32 50.06783 -5.51162 30004 ft 502 kts 301°
2026-05-04 14:32 50.10436 -5.60428 30017 ft 502 kts 301°
2026-05-04 14:33 50.14085 -5.69696 30021 ft 501 kts 301°
2026-05-04 14:33 50.17714 -5.78987 30016 ft 502 kts 301°
2026-05-04 14:34 50.21358 -5.88271 30017 ft 501 kts 301°
2026-05-04 14:34 50.24979 -5.97583 30013 ft 501 kts 301°
2026-05-04 14:35 50.28563 -6.06863 30013 ft 501 kts 302°
2026-05-04 14:35 50.32176 -6.16206 30012 ft 501 kts 302°
2026-05-04 14:36 50.35770 -6.25540 30008 ft 501 kts 301°
2026-05-04 14:36 50.39358 -6.34889 30011 ft 501 kts 302°
2026-05-04 14:37 50.42944 -6.44259 30007 ft 501 kts 301°
2026-05-04 14:37 50.46511 -6.53648 29989 ft 501 kts 302°
2026-05-04 14:38 50.50054 -6.62975 30014 ft 501 kts 303°
2026-05-04 14:38 50.53615 -6.72402 30013 ft 501 kts 302°
2026-05-04 14:39 50.57156 -6.81832 30014 ft 501 kts 303°
2026-05-04 14:39 50.60704 -6.91270 30022 ft 501 kts 303°
2026-05-04 14:40 50.66016 -7.05463 30022 ft 502 kts 303°
2026-05-04 14:40 50.69545 -7.14985 30020 ft 504 kts 304°
2026-05-04 14:41 50.73080 -7.24529 30030 ft 504 kts 304°
2026-05-04 14:42 50.80132 -7.43638 30033 ft 504 kts 304°
2026-05-04 14:42 50.83619 -7.53180 30033 ft 504 kts 304°
2026-05-04 14:43 50.87119 -7.62785 30041 ft 503 kts 305°
2026-05-04 14:43 50.90638 -7.72376 30042 ft 504 kts 305°
2026-05-04 14:44 50.94131 -7.82017 30045 ft 505 kts 305°
2026-05-04 14:44 50.97597 -7.91693 30050 ft 504 kts 304°
2026-05-04 14:45 51.01030 -8.01406 30060 ft 505 kts 303°
2026-05-04 14:45 51.04082 -8.11498 30050 ft 508 kts 300°
2026-05-04 14:46 51.07128 -8.21604 30052 ft 506 kts 303°
2026-05-04 14:46 51.10381 -8.31543 30055 ft 507 kts 304°
2026-05-04 14:47 51.13621 -8.41510 30058 ft 507 kts 303°
2026-05-04 14:47 51.16835 -8.51417 30066 ft 506 kts 303°
2026-05-04 14:48 51.20055 -8.61418 30057 ft 506 kts 303°
2026-05-04 14:48 51.23263 -8.71423 30060 ft 505 kts 304°
2026-05-04 14:49 51.26478 -8.81392 30061 ft 504 kts 303°
2026-05-04 14:49 51.29669 -8.91381 30066 ft 504 kts 303°
2026-05-04 14:50 51.32843 -9.01368 30076 ft 504 kts 303°
2026-05-04 14:50 51.36008 -9.11375 30072 ft 504 kts 303°
2026-05-04 14:51 51.39168 -9.21294 30070 ft 503 kts 303°
2026-05-04 14:51 51.42303 -9.31299 30076 ft 503 kts 303°
2026-05-04 14:52 51.45442 -9.41323 30057 ft 501 kts 302°
2026-05-04 14:52 51.48037 -9.49621 30071 ft 502 kts 302°
2026-05-04 14:53 51.51124 -9.59667 30080 ft 502 kts 302°
2026-05-04 14:53 51.54250 -9.69689 30065 ft 501 kts 302°
2026-05-04 14:54 51.57346 -9.79711 30083 ft 500 kts 302°
2026-05-04 14:54 51.60414 -9.89743 30087 ft 499 kts 302°
2026-05-04 14:55 51.63487 -9.99769 30092 ft 499 kts 301°